Flag Weather past 2 weeks in Shreveport, Louisiana, U.S.A.

Now
60 °F

Overcast.


Feels Like: 60 °F
Forecast: 53 / 71 °F
Wind: 12 mph from South

Location: Shreveport Regional Airport

Current Time: Nov 29, 2014 at 3:58:10 AM

Latest Report: Nov 29, 2014 at 2:56 AM


Visibility: 10 mi

Pressure: 30.03 "Hg

Humidity: 86%

Dew point: 56 °F

Location of ShreveportLocation

Historic Weather in Shreveport — Graph

°F

Shreveport temperature yesterday

Maximum temperature yesterday: 66 °F (at 2:56 PM)
Minimum temperature yesterday: 34 °F (at 5:56 AM)
Average temperature yesterday: 50 °F

Past Weeks' High & Low Weather Summary

 TemperatureHumidityPressure
High73 °F (Nov 23, 2:56 PM)100% (Nov 16, 10:56 PM)30.55 "Hg (Nov 16, 10:56 PM)
Low25 °F (Nov 18, 5:56 AM)24% (Nov 26, 2:56 PM)29.41 "Hg (Nov 23, 2:56 PM)
Average49 °F68%30.17 "Hg
* Reported Nov 14 2:56 AM — Nov 29 2:56 AM, Shreveport, Weather by CustomWeather, © 2014

Note: Actual official high and low records may vary slightly from our data, if they occured in-between our weather recording intervals... More about our weather records

Advertising

Shreveport weather history for previous 24 hours

 ConditionsComfort  
Time TempWeatherWind HumidityBarometerVisibility
2:56 AM
Nov 29
60 °FOvercast.12 mph86%30.03 "Hg10 mi
1:56 AM59 °FOvercast.12 mph87%30.05 "Hg10 mi
12:56 AM58 °FOvercast.10 mph87%30.05 "Hg10 mi
12:04 AM56 °FPassing clouds.14 mph90%30.07 "Hg10 mi
11:56 PM
Nov 28
55 °FPartly cloudy.9 mph93%30.07 "Hg10 mi
10:56 PM55 °FPassing clouds.8 mph90%30.07 "Hg10 mi
9:56 PM55 °FPassing clouds.10 mph87%30.09 "Hg10 mi
8:56 PM55 °FPassing clouds.10 mph80%30.10 "Hg10 mi
7:56 PM56 °FPassing clouds.9 mph75%30.11 "Hg10 mi
6:56 PM55 °FClear.8 mph72%30.11 "Hg10 mi
5:56 PM55 °FPassing clouds.9 mph64%30.13 "Hg10 mi
4:56 PM61 °FPassing clouds.10 mph50%30.13 "Hg10 mi
3:56 PM65 °FSunny.10 mph44%30.14 "Hg10 mi
2:56 PM66 °FSunny.12 mph40%30.15 "Hg10 mi
1:56 PM65 °FSunny.9 mph39%30.18 "Hg10 mi
12:56 PM63 °FSunny.10 mph40%30.22 "Hg10 mi
11:56 AM59 °FSunny.10 mph42%30.26 "Hg10 mi
10:56 AM54 °FSunny.9 mph49%30.32 "Hg10 mi
9:56 AM49 °FSunny.12 mph59%30.35 "Hg10 mi
8:56 AM43 °FPassing clouds.9 mph74%30.36 "Hg10 mi
7:56 AM38 °FPassing clouds.12 mph86%30.36 "Hg10 mi
6:56 AM35 °FSunny.6 mph88%30.37 "Hg10 mi
5:56 AM34 °FClear.6 mph88%30.37 "Hg10 mi
4:56 AM35 °FClear.5 mph88%30.37 "Hg10 mi
3:56 AM36 °FClear.6 mph85%30.38 "Hg10 mi
Weather by CustomWeather, © 2014

See weather overviewHow to use our weather pages